sat.trackr.live / text

‹ back to catalog

STARLINK-34197

NORAD 64184 · 2025-113Q

PAYLOAD ACTIVE UNKNOWN

§ Identity

Operator
Country
US
Launch date
2025-05-28
Launch site
AFETR
Launch vehicle
Mass (kg)
RCS (m²)

Purposes: comms

External: N2YO · Heavens-Above · Gunter

§ Orbital elements

Epoch: 2026-05-25T02:44:45.792096Z

Period
94.11 min
Inclination
53.1600°
Eccentricity
0.0001402
Mean motion
15.30205047 rev/d
Perigee alt
474.2 km
Apogee alt
476.2 km
Semi-major
6,853.3 km
B*
3.4265e-4
RAAN
96.3196°
Arg perigee
91.4135°
Mean anomaly
268.7026°
Rev number
5,676

§ Raw data

STARLINK-341971 64184U 25113Q   26145.11441889  .00009804  00000+0  34265-3 0  99922 64184  53.1600  96.3196 0001402  91.4135 268.7026 15.30205047 56766

JSON: /api/v1/satellites/64184 · /tle

For live sub-satellite position, see the globe view (requires WebGL).

§ Visibility from observer

Set your observer location to see the next 7 days of passes ≥ 10°. The values pass through the URL so the page stays shareable.

No JS? Fill the form by hand. The geolocation button needs JavaScript.